Showing default

OPS 9321 (IDSCS 8), 2645

Orbit data source: Space-Track

OPS 9321 (IDSCS 8), 2645 is a payload satellite owned by USAF SSD (US) in GEO that was launched on Wed, 18 Jan 1967 UTC via a TITAN IIIC launch vehicle from the Air Force Eastern Test Range (AFETR). Payload-class satellites include a variety of spacecraft equipped with specific instruments for various scientific and technological missions. These include communications satellites like Starlink; space stations such as the ISS; scientific satellites like the Hubble; Earth observation satellites from companies like Planet Labs, Umbra, and HawkEye 360; GPS; miniature CubeSats for education and research; and military/defense satellites.

Loading next visibility...
Identifier
2645, 1967-003A
Orbit
GEO
Country
Flag of USUS
Related business
Manufacturer
Philco-Ford WDL
Mission
Non-operational spacecraft
Bus & Motor
IDCSP, Unknown motor
Mass
45 kg wet, 45 kg dry
Launch date (UTC)
1967-01-18 (59 years ago)
Launch vehicle
TITAN IIIC
Launch site
Air Force Eastern Test Range (AFETR)
Object type
Payload
Rocket body
Debris
Shape & HBR
Unknown
Radar Cross Section
Medium (>0.1 m² and <1 m²)

Expand to show TLE details & history
Last TLE update: 20 hours ago

TLE from 20 hours ago
0 OPS 9321 (IDSCS 8)
1 02645U 67003A   26033.97134795 -.00000125  00000-0  00000-0 0  9991
2 02645   8.0953  45.8108 0033384 122.6489 228.0976  1.08317413232990
Epoch: 2026-02-02T23:18Z
TLE epoch observation values (Epoch: 2026-02-02T23:18:44.462Z)
Latitude
-1.35437°
Longitude
-86.45515°
Altitude
33,760.76 km
Speed
3.148 km/s
True Right ascension
02h 25m 33s
True Declination
-1° 21' 11"
Sunlit
Object was in daylight at epoch
Visualization orbit readout
Latitude
Unknown
Longitude
Unknown
Altitude
Unknown
Speed
Unknown
Apparent Right ascension
Unknown
Apparent Declination
Unknown
Sunlit
N/A
Visualization observer readout
Local Sidereal Time
21:09:36
Azimuth
Unknown
Elevation
Unknown
Doppler factor
Unknown
Orbital elements
Apogee altitude
33,806.704 km
Perigee altitude
33,539.291 km
Semi-major axis
40,051.135 km
Eccentricity
0.00334
Inclination
8.0953°
RAAN
45.8108°
Arg. of periapsis
122.6489°
True anomaly
227.81367°
Mean anomaly
228.0976°
Eccentric anomaly
227.95555°
Mean motion
0.27078 °/min
Orbital period
1,329.48 mins
BSTAR
0
Loading maneuver chart data...
Computing Atmospheric mass density...
Loading historical data...
Loading historical data...
Loading historical data...
Loading historical data...
Loading historical data...
Loading historical data...
Loading historical data...

Documentation

Showing up to 5 results
|